Location: Estes Par
(40.3770°N, 105.5210°W)
Time: 21:50:32
(UTC-07:00)

Vanguard 1 Rocket - Visible Passes

Search period start: 11 December 2017 00:00
Search period end: 21 December 2017 00:00
Orbit: 656 x 4222 km, 34.3° (Epoch: 11 December)

Date Brightness Start Highest point End Pass type
(mag) Time Alt. Az. Time Alt. Az. Time Alt. Az.
11 Dec 9.8 17:41:33 10° SW 17:52:14 60° SSE 18:08:34 18° E visible
11 Dec 10.0 20:06:19 10° W 20:21:36 72° S 20:25:51 63° SE visible
11 Dec 10.8 22:33:24 10° W 22:43:08 38° WSW 22:43:08 38° WSW visible
12 Dec11.701:42:51S01:42:51S01:00:25Wvisible
12 Dec 9.8 18:55:15 10° WSW 19:07:55 71° S 19:18:37 38° ESE visible
12 Dec 10.3 21:21:09 10° W 21:35:54 61° SW 21:35:54 61° SW visible
12 Dec 11.4 23:49:58 10° W 00:35:19 - SSE 23:53:11 17° W visible
13 Dec 9.7 17:44:41 10° WSW 17:55:05 64° SSE 18:11:26 17° E visible
13 Dec 10.0 20:09:33 10° W 20:24:26 69° S 20:28:43 61° SE visible
13 Dec 10.9 22:36:40 10° W 22:46:00 35° WSW 22:46:00 35° WSW visible
14 Dec11.801:44:58S01:44:58S01:03:17Wvisible
14 Dec 9.8 18:58:29 10° W 19:10:51 71° S 19:21:34 37° ESE visible
14 Dec 10.3 21:24:23 10° W 21:38:52 57° SW 21:38:52 57° SW visible
14 Dec 11.5 23:53:42 10° W 00:37:17 - SSE 23:56:09 15° W visible
15 Dec 9.6 17:47:53 10° WSW 17:58:00 67° S 18:14:29 17° E visible
15 Dec 10.0 20:12:48 10° W 20:27:16 65° SSW 20:31:47 57° SSE visible
15 Dec 10.9 22:40:05 10° W 22:49:05 32° WSW 22:49:05 32° WSW visible
16 Dec 9.8 19:01:46 10° W 19:13:48 69° S 19:24:46 35° ESE visible
16 Dec 10.4 21:27:42 10° W 21:42:04 51° SW 21:42:04 51° SW visible
16 Dec 11.6 23:57:54 10° W 00:38:54 - SSE 23:59:23 12° W visible
17 Dec 9.5 17:51:09 10° WSW 18:01:01 68° S 18:17:50 15° E visible
17 Dec 10.1 20:16:07 10° W 20:30:06 60° SSW 20:35:09 52° SSE visible
17 Dec 11.0 22:43:43 10° W 22:52:28 29° WSW 22:52:28 29° WSW visible
18 Dec 9.3 16:40:54 10° WSW 16:48:59 61° SSE 17:05:03 10° E visible
18 Dec 9.8 19:05:05 10° W 19:16:46 66° S 19:28:19 32° ESE visible
18 Dec 10.5 21:31:07 10° W 21:45:39 45° SSW 21:45:39 45° SSW visible
19 Dec 11.6 00:02:55 10° W 00:40:05 - S 00:02:58 10° W visible
19 Dec 9.5 17:54:27 10° W 18:04:04 67° S 18:21:36 13° ESE visible
19 Dec 10.2 20:19:28 10° W 20:32:56 54° SSW 20:38:57 45° SSE visible
19 Dec 11.1 22:47:42 10° W 22:56:17 25° WSW 22:56:17 25° WSW visible
20 Dec 9.3 16:44:09 10° WSW 16:52:02 63° S 17:07:46 10° E visible
20 Dec 9.8 19:08:25 10° W 19:19:45 61° SSW 19:32:23 27° SE visible
20 Dec 10.7 21:34:43 10° W 21:49:13 38° SSW 21:49:45 38° SSW visible
